Regional Weather Roundup
Issued by NWS

Home | Current Version | Previous Version | Text Only | Print | Product List | Glossary On
Versions: 1 2 3 4 5 6 7 8 9 10 11 12 13 14 15 16 17 18 19 20 21 22 23 24 25 26 27 28 29 30 31 32 33 34 35 36 37 38 39 40 41 42 43 44 45 46 47 48 49 50
685
ASUS44 KLIX 011401
RWRLA
LOUISIANA WEATHER ROUNDUP
NATIONAL WEATHER SERVICE NEW ORLEANS LA
800 AM CST SUN MAR 01 2015

NOTE: "FAIR" INDICATES FEW OR NO CLOUDS BELOW 12,000 FEET WITH NO
      SIGNIFICANT WEATHER AND/OR OBSTRUCTIONS TO VISIBILITY.
      SKY/WX - SKY CONDITION AND SIGNIFICANT WEATHER.
      TMP - AIR TEMPERATURE.    DP   - DEWPOINT TEMPERATURE.
      RH  - RELATIVE HUMIDITY.  PRES - PRESSURE.
      HX  - HEAT INDEX.         WCI  - WIND CHILL INDEX.

*  THESE STATIONS ARE NOT NWS OR FAA STATIONS AND ARE NOT UNDER
   NWS QUALITY CONTROL.

LAZ040-048-061>063-065-066-069-011500-
SOUTHEAST LOUISIANA

CITY           SKY/WX    TMP DP  RH WIND       PRES   REMARKS
N.O. AUDUBON   NOT AVBL
N.O. INTL ARPT DRZL/FOG  56  55  97 E6        30.32R VSB 1/4
N.O. LAKEFRONT FOG       56  53  90 E13       30.33R VSB 1/2
SLIDELL        FOG       54  54 100 E6        30.33R VSB 1/2
BATON ROUGE    CLOUDY    56  55  97 E13       30.29R FOG
BOOTHVILLE     CLOUDY    64  62  93 E7        30.31R
BELLE CHASSE   FOG       59  56  89 E8        30.31R VSB 1/2
BOGALUSA*        N/A     57  53  86 SE6       30.36R
GALLIANO*      CLOUDY    56  55  97 E7        30.30S
NEW ROADS*     NOT AVBL
GONZALES*      NOT AVBL
HAMMOND*       NOT AVBL
HOUMA*         CLOUDY    63  61  94 E12       30.30R FOG
PORT FOURCHON* PTSUNNY   63  63 100 E9        30.33R FOG

$$

LAZ041-044-053-054-011500-
SOUTHWEST LOUISIANA

CITY           SKY/WX    TMP DP  RH WIND       PRES   REMARKS
LAKE CHARLES   LGT RAIN  60  58  92 E10       30.23S FOG
LAFAYETTE      CLOUDY    61  59  93 SE7       30.27R
PATTERSON      CLOUDY    63  59  88 E12G18    30.28R
SALT POINT       N/A     63  61  93 E6        30.25R
NEW IBERIA     CLOUDY    61  59  93 SE14      30.27R
CHENAULT AIRPK CLOUDY    57  57 100 E5        30.23S FOG

$$

LAZ027-028-011500-
CENTRAL LOUISIANA

CITY           SKY/WX    TMP DP  RH WIND       PRES   REMARKS
FORT POLK      LGT RAIN  54  52  94 E6        30.25S VSB 1/2
ALEXANDRIA INT CLOUDY    51  50  96 CALM      30.27R
ALEXANDRIA     CLOUDY    52  47  83 NE5       30.27S

$$

LAZ001-002-011500-
NORTHWEST LOUISIANA

CITY           SKY/WX    TMP DP  RH WIND       PRES   REMARKS
SHREVEPORT     CLOUDY    40  39  97 N6        30.30R
BARKSDALE AFB  NOT AVBL
DTN SHREVEPORT CLOUDY    39  36  89 NE5       30.31R

$$

LAZ014-016-011500-
NORTHEAST LOUISIANA

CITY           SKY/WX    TMP DP  RH WIND       PRES   REMARKS
MONROE         CLOUDY    43  39  86 NE7       30.32S
TALLULAH       CLOUDY    49  44  83 E3        30.32S

$$




USA.gov is the U.S. government's official web portal to all federal, state and local government web resources and services.